Change the Weather History Date:

Thursday, December 12, 2013

  Actual Average Record
Temperature  
Mean Temperature 8 °F -  
Max Temperature 17 °F 29 °F 54 °F (1968)
Min Temperature 0 °F 11 °F -14 °F (2000)
Degree Days  
Heating Degree Days 56    
Moisture  
Dew Point 5 °F    
Average Humidity 77    
Maximum Humidity 92    
Minimum Humidity 63    
Precipitation  
Precipitation 0.00 in - - ()
Sea Level Pressure  
Sea Level Pressure 30.20 in    
Wind  
Wind Speed 4 mph (WSW)    
Max Wind Speed 8 mph    
Max Gust Speed -    
Visibility 10 miles    
Events      
Averages and records for this station are not official NWS values.
T = Trace of Precipitation, MM = Missing Value Source: NWS Daily Summary

Daily Weather History Graph

Daily Weather History Graph

Search for Another Location

Airport or City:

Trip Planner

Search our weather history database for the weather conditions in past years. The results will help you decide how hot, cold, wet, or windy it might be!

Date:

Astronomy

Dec. 12, 2013 Rise Set
Actual Time 7:40 AM CST 4:32 PM CST
Civil Twilight 7:07 AM CST 5:06 PM CST
Nautical Twilight 6:30 AM CST 5:43 PM CST
Astronomical Twilight 5:55 AM CST 6:18 PM CST
Moon 1:48 PM CST (12/12) 2:55 AM CST (12/12)
Length of Visible Light 9h 58m
Length of Day
8h 51m
Waxing Gibbous, 80% of the Moon is Illuminated
Dec 12
Waxing Gibbous
Dec 17
Full
Dec 25
Last Quarter
Jan 1
New
Jan 7
First Quarter

Hourly Weather History & Observations

Time (CST) Temp. Windchill Dew Point Humidity Pressure Visibility Wind Dir Wind Speed Gust Speed Precip Events Conditions
12:07 AM -0.4 °F -13.4 °F -5.8 °F 78% 30.28 in 10.0 mi South 6.9 mph - N/A   Clear
12:27 AM 1.4 °F -9.9 °F -5.8 °F 72% 30.28 in 10.0 mi South 5.8 mph - N/A   Scattered Clouds
12:47 AM 1.4 °F -11.3 °F -5.8 °F 72% 30.26 in 10.0 mi South 6.9 mph - N/A   Mostly Cloudy
1:07 AM 1.4 °F -8.3 °F -4.0 °F 78% 30.25 in 10.0 mi South 4.6 mph - N/A   Overcast
1:27 AM 1.4 °F -6.2 °F -2.2 °F 85% 30.25 in 10.0 mi South 3.5 mph - N/A   Mostly Cloudy
1:47 AM 3.2 °F -6.2 °F -2.2 °F 78% 30.23 in 10.0 mi South 4.6 mph - N/A   Mostly Cloudy
2:07 AM 5.0 °F -4.1 °F -0.4 °F 78% 30.22 in 10.0 mi South 4.6 mph - N/A   Overcast
2:27 AM 6.8 °F -2.0 °F -0.4 °F 72% 30.22 in 10.0 mi SW 4.6 mph - N/A   Overcast
2:47 AM 6.8 °F -2.0 °F -0.4 °F 72% 30.22 in 10.0 mi WSW 4.6 mph - N/A   Overcast
3:07 AM 6.8 °F -2.0 °F -0.4 °F 72% 30.22 in 10.0 mi WSW 4.6 mph - N/A   Mostly Cloudy
3:27 AM 5.0 °F -4.1 °F -0.4 °F 78% 30.22 in 10.0 mi SW 4.6 mph - N/A   Scattered Clouds
3:47 AM 5.0 °F -4.1 °F -0.4 °F 78% 30.22 in 10.0 mi WSW 4.6 mph - N/A   Clear
4:07 AM 5.0 °F - -0.4 °F 78% 30.21 in 10.0 mi Calm Calm - N/A   Clear
4:27 AM 5.0 °F - -0.4 °F 78% 30.21 in 10.0 mi Calm Calm - N/A   Clear
4:47 AM 5.0 °F - 1.4 °F 85% 30.21 in 10.0 mi Calm Calm - N/A   Clear
5:07 AM 6.8 °F - 1.4 °F 79% 30.21 in 10.0 mi Calm Calm - N/A   Unknown
5:27 AM 6.8 °F -0.1 °F 3.2 °F 85% 30.21 in 10.0 mi SW 3.5 mph - N/A   Unknown
5:47 AM 8.6 °F 2.0 °F 3.2 °F 79% 30.22 in 10.0 mi West 3.5 mph - N/A   Clear
6:07 AM 8.6 °F - 3.2 °F 79% 30.22 in 10.0 mi Calm Calm - N/A   Clear
6:27 AM 8.6 °F 2.0 °F 3.2 °F 79% 30.22 in 10.0 mi WSW 3.5 mph - N/A   Clear
6:47 AM 8.6 °F 2.0 °F 5.0 °F 85% 30.22 in 10.0 mi WSW 3.5 mph - N/A   Clear
7:07 AM 8.6 °F 2.0 °F 3.2 °F 79% 30.22 in 10.0 mi WNW 3.5 mph - N/A   Clear
7:27 AM 8.6 °F -2.6 °F 3.2 °F 79% 30.23 in 10.0 mi WNW 6.9 mph - N/A   Clear
7:47 AM 8.6 °F -3.7 °F 5.0 °F 85% 30.23 in 10.0 mi WNW 8.1 mph - N/A   Clear
8:07 AM 8.6 °F -2.6 °F 5.0 °F 85% 30.24 in 10.0 mi West 6.9 mph - N/A   Clear
8:27 AM 8.6 °F 0.1 °F 3.2 °F 79% 30.25 in 10.0 mi WNW 4.6 mph - N/A   Clear
8:47 AM 8.6 °F 0.1 °F 3.2 °F 79% 30.24 in 10.0 mi WSW 4.6 mph - N/A   Clear
9:07 AM 10.4 °F 2.2 °F 3.2 °F 73% 30.25 in 10.0 mi West 4.6 mph - N/A   Clear
9:27 AM 10.4 °F 0.8 °F 5.0 °F 79% 30.25 in 10.0 mi West 5.8 mph - N/A   Clear
9:47 AM 10.4 °F 0.8 °F 3.2 °F 73% 30.26 in 10.0 mi WNW 5.8 mph - N/A   Clear
10:07 AM 10.4 °F 2.2 °F 3.2 °F 73% 30.26 in 10.0 mi WNW 4.6 mph - N/A   Clear
10:27 AM 12.2 °F 4.3 °F 5.0 °F 73% 30.26 in 10.0 mi West 4.6 mph - N/A   Clear
10:47 AM 12.2 °F 6.1 °F 5.0 °F 73% 30.26 in 10.0 mi West 3.5 mph - N/A   Clear
11:07 AM 14.0 °F 6.5 °F 6.8 °F 73% 30.26 in 10.0 mi West 4.6 mph - N/A   Clear
11:27 AM 15.8 °F 8.6 °F 6.8 °F 68% 30.25 in 10.0 mi WSW 4.6 mph - N/A   Clear
11:47 AM 15.8 °F 7.2 °F 6.8 °F 68% 30.25 in 10.0 mi West 5.8 mph - N/A   Clear
12:07 PM 15.8 °F 7.2 °F 6.8 °F 68% 30.23 in 10.0 mi SW 5.8 mph - N/A   Clear
12:27 PM 15.8 °F 7.2 °F 6.8 °F 68% 30.22 in 10.0 mi WSW 5.8 mph - N/A   Clear
12:47 PM 15.8 °F 10.2 °F 6.8 °F 68% 30.21 in 10.0 mi WSW 3.5 mph - N/A   Clear
1:07 PM 17.6 °F 12.3 °F 6.8 °F 63% 30.21 in 10.0 mi WSW 3.5 mph - N/A   Clear
1:27 PM 17.6 °F 8.2 °F 6.8 °F 63% 30.20 in 10.0 mi SW 6.9 mph - N/A   Clear
1:47 PM 17.6 °F 8.2 °F 8.6 °F 68% 30.20 in 10.0 mi WSW 6.9 mph - N/A   Clear
2:07 PM 17.6 °F 9.3 °F 8.6 °F 68% 30.19 in 10.0 mi SW 5.8 mph - N/A   Clear
2:27 PM 17.6 °F 10.7 °F 8.6 °F 68% 30.18 in 10.0 mi WSW 4.6 mph - N/A   Clear
2:47 PM 17.6 °F 10.7 °F 8.6 °F 68% 30.19 in 10.0 mi WSW 4.6 mph - N/A   Clear
3:07 PM 15.8 °F 7.2 °F 8.6 °F 73% 30.18 in 10.0 mi WSW 5.8 mph - N/A   Clear
3:27 PM 17.6 °F 10.7 °F 8.6 °F 68% 30.18 in 10.0 mi SW 4.6 mph - N/A   Scattered Clouds
3:47 PM 15.8 °F 10.2 °F 8.6 °F 73% 30.18 in 10.0 mi WSW 3.5 mph - N/A   Mostly Cloudy
4:07 PM 15.8 °F 10.2 °F 8.6 °F 73% 30.19 in 10.0 mi West 3.5 mph - N/A   Overcast
4:27 PM 15.8 °F - 8.6 °F 73% 30.19 in 10.0 mi Calm Calm - N/A   Mostly Cloudy
4:47 PM 15.8 °F - 8.6 °F 73% 30.19 in 10.0 mi Calm Calm - N/A   Scattered Clouds
5:07 PM 15.8 °F - 8.6 °F 73% 30.18 in 10.0 mi Calm Calm - N/A   Mostly Cloudy
5:27 PM 15.8 °F - 8.6 °F 73% 30.18 in 10.0 mi Calm Calm - N/A   Overcast
5:47 PM 15.8 °F - 8.6 °F 73% 30.16 in 10.0 mi Calm Calm - N/A   Unknown
6:07 PM 15.8 °F 10.2 °F 10.4 °F 79% 30.15 in 10.0 mi South 3.5 mph - N/A   Unknown
6:27 PM 15.8 °F - 8.6 °F 73% 30.15 in 10.0 mi Calm Calm - N/A   Mostly Cloudy
6:47 PM 14.0 °F - 8.6 °F 79% 30.15 in 10.0 mi Calm Calm - N/A   Unknown
7:07 PM 14.0 °F - 10.4 °F 86% 30.16 in 10.0 mi Calm Calm - N/A   Unknown
7:27 PM 15.8 °F - 8.6 °F 73% 30.14 in 10.0 mi Calm Calm - N/A   Mostly Cloudy
7:47 PM 14.0 °F - 10.4 °F 86% 30.14 in 10.0 mi Calm Calm - N/A   Unknown
8:07 PM 14.0 °F - 8.6 °F 79% 30.13 in 10.0 mi Calm Calm - N/A   Unknown
8:27 PM 14.0 °F - 10.4 °F 86% 30.12 in 10.0 mi Calm Calm - N/A   Unknown
8:47 PM 14.0 °F - 10.4 °F 86% 30.12 in 10.0 mi Calm Calm - N/A   Unknown
9:06 PM 14.0 °F - 10.4 °F 86% 30.12 in 10.0 mi Calm Calm - N/A   Overcast
9:27 PM 12.2 °F - 10.4 °F 92% 30.12 in 10.0 mi Calm Calm - N/A   Overcast
9:47 PM 14.0 °F - 10.4 °F 86% 30.12 in 10.0 mi Calm Calm - N/A   Unknown
10:07 PM 14.0 °F - 10.4 °F 86% 30.12 in 10.0 mi Calm Calm - N/A   Unknown
10:27 PM 14.0 °F - 10.4 °F 86% 30.12 in 10.0 mi Calm Calm - N/A   Unknown
10:47 PM 14.0 °F - 10.4 °F 86% 30.12 in 10.0 mi Calm Calm - N/A   Unknown
11:07 PM 12.2 °F - 10.4 °F 92% 30.12 in 10.0 mi Calm Calm - N/A   Unknown
11:27 PM 12.2 °F - 8.6 °F 85% 30.13 in 10.0 mi Calm Calm - N/A   Scattered Clouds
11:47 PM 12.2 °F - 10.4 °F 92% 30.13 in 10.0 mi Calm Calm - N/A   Unknown